Location: Codford Saint Peter
(51.1597°N, 2.0531°W)
Time: 03:45:05
(UTC+00:00)

CZ-2C R/B - Pass Details

Date: 18 September 2020
Orbit: 785 x 870 km, 98.2° (Epoch: 18 October)

Event Time Altitude Azimuth Distance (km) Brightness Sun altitude
Rises 19:15:59 0° 19° (NNE) 3,409 5.8 -10.3°
Reaches altitude 10° 19:18:31 10° 28° (NNE) 2,482 5.0 -10.7°
Maximum altitude 19:23:39 39° 96° (E) 1,273 3.2 -11.5°
Drops below altitude 10° 19:28:51 10° 164° (SSE) 2,503 4.8 -12.2°
Sets 19:31:23 0° 172° (S) 3,440 5.6 -12.6°
